Stündliche Wetter Labedziow

Heute, 10 Mai, Montag

Zeit Temperatur Niederschläge Wind Luftdruck Luftfeuchtigkeit
00:00 +9°C° 0 mm 3 m/S 741 mmHg 88%
01:00 +8°C° 0 mm 3 m/S 741 mmHg 88%
02:00 +8°C° 0 mm 3 m/S 741 mmHg 89%
03:00 +8°C° 0 mm 3 m/S 741 mmHg 90%
04:00 +7°C° 0 mm 3 m/S 741 mmHg 91%
05:00 +8°C° 0 mm 4 m/S 741 mmHg 85%
06:00 +11°C° 0 mm 4 m/S 741 mmHg 79%
07:00 +12°C° 0 mm 5 m/S 741 mmHg 74%
08:00 +14°C° 0 mm 5 m/S 741 mmHg 69%
09:00 +16°C° 0 mm 5 m/S 741 mmHg 64%
10:00 +19°C° 0 mm 5 m/S 741 mmHg 60%
11:00 +20°C° 0 mm 5 m/S 741 mmHg 57%
12:00 +22°C° 0 mm 5 m/S 740 mmHg 54%
13:00 +23°C° 0 mm 5 m/S 740 mmHg 51%
14:00 +23°C° 0 mm 5 m/S 740 mmHg 53%
15:00 +23°C° 0 mm 4 m/S 740 mmHg 56%
16:00 +23°C° 0 mm 4 m/S 740 mmHg 59%
17:00 +21°C° 0 mm 4 m/S 740 mmHg 65%
18:00 +19°C° 0 mm 4 m/S 740 mmHg 71%
19:00 +17°C° 0 mm 4 m/S 740 mmHg 78%
20:00 +15°C° 0 mm 4 m/S 740 mmHg 81%
21:00 +14°C° 0 mm 4 m/S 740 mmHg 84%
22:00 +13°C° 0 mm 3 m/S 740 mmHg 86%
23:00 +12°C° 0 mm 3 m/S 740 mmHg 88%

Morgen, 11 Mai, Dienstag

Zeit Temperatur Niederschläge Wind Luftdruck Luftfeuchtigkeit
00:00 +11°C° 0 mm 3 m/S 740 mmHg 90%
01:00 +11°C° 0 mm 3 m/S 740 mmHg 93%
02:00 +10°C° 0 mm 3 m/S 740 mmHg 93%
03:00 +10°C° 0 mm 3 m/S 739 mmHg 93%
04:00 +10°C° 0 mm 3 m/S 739 mmHg 93%
05:00 +11°C° 0 mm 4 m/S 739 mmHg 87%
06:00 +13°C° 0 mm 5 m/S 739 mmHg 82%
07:00 +15°C° 0 mm 6 m/S 739 mmHg 76%
08:00 +17°C° 0 mm 6 m/S 739 mmHg 71%
09:00 +20°C° 0 mm 7 m/S 739 mmHg 66%
10:00 +21°C° 0 mm 7 m/S 739 mmHg 61%
11:00 +22°C° 0 mm 7 m/S 739 mmHg 59%
12:00 +23°C° 0 mm 7 m/S 738 mmHg 56%
13:00 +24°C° 0 mm 7 m/S 738 mmHg 54%
14:00 +24°C° 0 mm 7 m/S 738 mmHg 57%
15:00 +23°C° 0 mm 7 m/S 738 mmHg 60%
16:00 +23°C° 0 mm 7 m/S 737 mmHg 64%
17:00 +21°C° 0 mm 7 m/S 737 mmHg 67%
18:00 +18°C° 0 mm 7 m/S 737 mmHg 70%
19:00 +16°C° 0 mm 7 m/S 737 mmHg 74%
20:00 +15°C° 0 mm 7 m/S 737 mmHg 73%
21:00 +15°C° 0 mm 7 m/S 737 mmHg 72%
22:00 +14°C° 0 mm 7 m/S 737 mmHg 71%
23:00 +13°C° 0 mm 6 m/S 737 mmHg 69%

übermorgen, 12 Mai, Mittwoch

Zeit Temperatur Niederschläge Wind Luftdruck Luftfeuchtigkeit
00:00 +11°C° 0 mm 6 m/S 737 mmHg 67%
01:00 +11°C° 0 mm 6 m/S 736 mmHg 65%
02:00 +10°C° 0 mm 5 m/S 736 mmHg 65%
03:00 +10°C° 0 mm 5 m/S 736 mmHg 65%
04:00 +10°C° 0 mm 5 m/S 736 mmHg 65%
05:00 +12°C° 0 mm 5 m/S 736 mmHg 66%
06:00 +13°C° 0 mm 5 m/S 736 mmHg 67%
07:00 +14°C° 0 mm 6 m/S 736 mmHg 68%
08:00 +16°C° 0 mm 7 m/S 736 mmHg 66%
09:00 +17°C° 0 mm 7 m/S 736 mmHg 63%
10:00 +20°C° 0 mm 8 m/S 736 mmHg 61%
11:00 +21°C° 0 mm 8 m/S 735 mmHg 59%
12:00 +21°C° 0 mm 8 m/S 735 mmHg 57%
13:00 +22°C° 0 mm 8 m/S 735 mmHg 55%
14:00 +21°C° 0 mm 8 m/S 735 mmHg 59%
15:00 +20°C° 0 mm 7 m/S 735 mmHg 62%
16:00 +18°C° 0 mm 7 m/S 734 mmHg 65%
17:00 +17°C° 0 mm 7 m/S 734 mmHg 68%
18:00 +15°C° 0 mm 6 m/S 734 mmHg 71%
19:00 +14°C° 0 mm 6 m/S 734 mmHg 73%
20:00 +12°C° 0 mm 5 m/S 734 mmHg 76%
21:00 +10°C° 0 mm 5 m/S 734 mmHg 78%
22:00 +9°C° 0 mm 5 m/S 734 mmHg 80%
23:00 +9°C° 0 mm 5 m/S 733 mmHg 82%

13 Mai, Donnerstag

Zeit Temperatur Niederschläge Wind Luftdruck Luftfeuchtigkeit
00:00 +8°C° 0 mm 5 m/S 733 mmHg 83%
01:00 +7°C° 0 mm 4 m/S 732 mmHg 84%
02:00 +7°C° 0 mm 4 m/S 732 mmHg 86%
03:00 +6°C° 0 mm 4 m/S 732 mmHg 89%
04:00 +5°C° 0 mm 3 m/S 731 mmHg 91%
05:00 +8°C° 0 mm 3 m/S 731 mmHg 87%
06:00 +9°C° 0 mm 3 m/S 731 mmHg 82%
07:00 +10°C° 0 mm 3 m/S 731 mmHg 77%
08:00 +12°C° 0 mm 3 m/S 731 mmHg 76%
09:00 +13°C° 0 mm 3 m/S 731 mmHg 75%
10:00 +15°C° 0 mm 2 m/S 731 mmHg 74%
11:00 +15°C° 0 mm 2 m/S 730 mmHg 75%
12:00 +15°C° 0 mm 2 m/S 730 mmHg 76%
13:00 +16°C° 0 mm 2 m/S 730 mmHg 76%
14:00 +16°C° 0.1 mm 1 m/S 730 mmHg 78%
15:00 +16°C° 0.1 mm 1 m/S 730 mmHg 79%
16:00 +16°C° 0.1 mm 1 m/S 730 mmHg 80%
17:00 +15°C° 0.2 mm 1 m/S 730 mmHg 83%
18:00 +15°C° 0.2 mm 1 m/S 730 mmHg 87%
19:00 +14°C° 0.2 mm 1 m/S 730 mmHg 90%
20:00 +13°C° 0 mm 1 m/S 730 mmHg 91%
21:00 +13°C° 0 mm 1 m/S 730 mmHg 92%
22:00 +12°C° 0 mm 1 m/S 730 mmHg 93%
23:00 +12°C° 0 mm 1 m/S 730 mmHg 94%

14 Mai, Freitag

Zeit Temperatur Niederschläge Wind Luftdruck Luftfeuchtigkeit
00:00 +12°C° 0 mm 1 m/S 730 mmHg 94%
01:00 +12°C° 0 mm 1 m/S 731 mmHg 94%
02:00 +11°C° 0 mm 1 m/S 731 mmHg 94%
03:00 +11°C° 0 mm 1 m/S 731 mmHg 94%
04:00 +11°C° 0 mm 1 m/S 731 mmHg 94%
05:00 +12°C° 0 mm 1 m/S 731 mmHg 90%
06:00 +13°C° 0 mm 1 m/S 731 mmHg 86%
07:00 +14°C° 0 mm 1 m/S 732 mmHg 83%
08:00 +14°C° 0.1 mm 1 m/S 732 mmHg 81%
09:00 +15°C° 0.1 mm 2 m/S 732 mmHg 79%
10:00 +15°C° 0.1 mm 2 m/S 733 mmHg 77%
11:00 +15°C° 0.1 mm 2 m/S 733 mmHg 78%
12:00 +15°C° 0.1 mm 2 m/S 733 mmHg 79%
13:00 +16°C° 0.1 mm 2 m/S 733 mmHg 79%
14:00 +16°C° 0.2 mm 2 m/S 733 mmHg 78%
15:00 +16°C° 0.2 mm 2 m/S 733 mmHg 77%
16:00 +16°C° 0.2 mm 2 m/S 734 mmHg 76%
17:00 +15°C° 0.1 mm 2 m/S 734 mmHg 80%
18:00 +14°C° 0.1 mm 2 m/S 734 mmHg 84%
19:00 +14°C° 0.1 mm 2 m/S 734 mmHg 88%
20:00 +13°C° 0 mm 2 m/S 734 mmHg 89%
21:00 +12°C° 0 mm 2 m/S 735 mmHg 90%
22:00 +12°C° 0 mm 2 m/S 735 mmHg 92%
23:00 +11°C° 0 mm 3 m/S 735 mmHg 93%

15 Mai, Samstag

Zeit Temperatur Niederschläge Wind Luftdruck Luftfeuchtigkeit
00:00 +11°C° 0 mm 3 m/S 735 mmHg 94%
01:00 +10°C° 0 mm 3 m/S 735 mmHg 94%
02:00 +10°C° 0 mm 3 m/S 735 mmHg 94%
03:00 +10°C° 0 mm 3 m/S 736 mmHg 94%
04:00 +10°C° 0 mm 3 m/S 736 mmHg 94%
05:00 +11°C° 0 mm 3 m/S 736 mmHg 91%
06:00 +11°C° 0 mm 3 m/S 736 mmHg 89%
07:00 +11°C° 0 mm 3 m/S 737 mmHg 87%
08:00 +12°C° 0 mm 3 m/S 737 mmHg 82%
09:00 +13°C° 0 mm 3 m/S 737 mmHg 76%
10:00 +14°C° 0 mm 3 m/S 737 mmHg 71%
11:00 +15°C° 0.1 mm 4 m/S 737 mmHg 70%
12:00 +15°C° 0.1 mm 4 m/S 737 mmHg 68%
13:00 +15°C° 0.1 mm 4 m/S 737 mmHg 66%
14:00 +15°C° 0.1 mm 4 m/S 737 mmHg 67%
15:00 +15°C° 0.1 mm 4 m/S 737 mmHg 67%
16:00 +15°C° 0.1 mm 4 m/S 737 mmHg 67%
17:00 +14°C° 0 mm 4 m/S 737 mmHg 73%
18:00 +13°C° 0 mm 3 m/S 737 mmHg 78%
19:00 +12°C° 0 mm 2 m/S 737 mmHg 83%
20:00 +12°C° 0 mm 2 m/S 737 mmHg 85%
21:00 +10°C° 0 mm 2 m/S 738 mmHg 88%
22:00 +10°C° 0 mm 1 m/S 738 mmHg 91%
23:00 +10°C° 0 mm 1 m/S 738 mmHg 91%
Mehr zeigen

Wir brauchen deine Erlaubnis

Meteoprog und unser Service Anbieter werden persönliche Daten aufbewahren, so wie Cookies, Geräte Bezeichnung oder ähnliche Technologien von deinem Gerät und Prozess, so wie Persönliche Daten Inhalte und Werbungen, genauso wie social Media und den Verkehr zu analysieren.

  • Aufbewahrung und/oder Zugang zu deiner Geräte Informationen.

    Cookies, Geräte Bezeichnung oder andere Informationen, können aufbewahrt oder Zugang zu deinem Gerät erhalten, für den Grund, der oben angegeben wird.

  • Personalisierte Werbung und Inhalte, Messungen, Einblick in das Publikum und Produkt Entwicklung.

    Werbungen und Inhalte können personalisiert werden, basierend auf ein Profil. Mehr Daten können besser personalisierte Werbungen und Inhalte hinzufügen. Werbung und Inhalte können gezeigt und gemessen werden. Einblicke über das Publikum, welche die Werbung gesehen haben und den Inhalt, können abgeleitet werden. So wie Daten können genutzt werden, um es zu verbessern oder die Benutzer Erfahrung zu verbessern das System und die Software.

Wenn du “Ich stimme zu” klickst, erlaubst du uns, die Cookies zu benutzen die Geräte Bezeichnung, den Web oder ähnliche Technologien zu benutzen. Deine Settings, können in deinem Gerät bei deinem Browser geändert werden.

Für den bestimmten Zweck, berechtigten Interessen beruhen darauf, mehr als auf den Inhalt. Du kannst mehr darüber in unseren Privaten und Cookie Politik lesen.